Location: Bethera
(33.2010°N, 79.7880°W)
Time: 08:31:32
(UTC-05:00)

Amateur Radio Satellites - All Passes

Search period start: 06 February 2016 08:01
Search period end: 07 February 2016 08:01
Location: Bethera, 33.2010°N, 79.7880°W

Satellite Date Start Highest point End Downlink Frequencies (MHz)
Time Altitude Azimuth
PHONESAT 2.4 06 Feb 08:07:51 08:11:06 74° 209° (SSW) 08:14:21 2401.200-2431.200
STRAND 1 06 Feb 08:08:37 08:11:14 14° 267° (W) 08:13:51 437.568
CUTE 1.7 + AOD 2 06 Feb 08:09:31 08:13:31 37° 98° (E) 08:17:30 437.475
Cubesat XI-IV 06 Feb 08:12:14 08:14:42 13° 296° (WNW) 08:17:09 437.490
CINEMA 3 06 Feb 08:16:45 08:20:34 35° 98° (E) 08:24:23 145.822/145.860
COMPASS 1 06 Feb 08:17:24 08:20:52 24° 96° (E) 08:24:20 437.405
SEEDS 06 Feb 08:23:25 08:27:27 41° 99° (E) 08:31:28 437.485
GOMX 1 06 Feb 08:26:36 08:30:09 24° 290° (WNW) 08:33:33 467.674
DOVE 4 06 Feb 08:28:27 08:32:31 44° 286° (WNW) 08:36:27 437.250
O/OREOS (USA 219) 06 Feb 08:33:19 08:37:42 60° 106° (ESE) 08:42:07 437.305
FUNcube-1 06 Feb 08:44:00 08:44:23 10° 93° (E) 08:44:45 145.935
AAUSAT CUBESAT 2 06 Feb 08:49:41 08:53:46 50° 100° (E) 08:57:51 437.432
CUBEBUG 2 06 Feb 08:52:19 08:56:03 31° 98° (E) 08:59:49 437.445
CANX-2 06 Feb 08:53:42 08:57:52 51° 285° (WNW) 09:02:01 2200.000
UNISAT 6 06 Feb 09:01:00 09:03:26 15° 68° (ENE) 09:05:50 437.425
UWE-3 06 Feb 09:02:08 09:05:47 29° 98° (E) 09:09:29 435.000/436.395/437.385
DELFI C3 06 Feb 09:03:35 09:05:27 13° 93° (E) 09:07:20 145.870
HO-68 06 Feb 09:16:03 09:23:05 58° 289° (WNW) 09:30:05 435.675
GONETS M04 06 Feb 09:16:49 09:25:21 65° 92° (E) 09:33:55
Oscar 11 06 Feb 09:20:09 09:24:19 44° 99° (E) 09:28:28 145.826/435.025
JUGNU 06 Feb 09:36:24 09:39:42 15° 168° (SSE) 09:43:01 437.505
Cosmos 2499 06 Feb 09:38:01 09:45:37 38° 86° (E) 09:53:31 435.465 / 435.565
ANTELSAT 06 Feb 09:44:07 09:48:20 47° 74° (ENE) 09:52:29 437.575/2403.000
CUTE 1.7 + AOD 2 06 Feb 09:46:37 09:49:01 15° 292° (WNW) 09:51:24 437.475
TIGRISAT 06 Feb 09:52:23 09:56:41 57° 75° (ENE) 10:00:55 435.000
COMPASS 1 06 Feb 09:53:05 09:56:17 21° 289° (WNW) 09:59:29 437.405
CINEMA 3 06 Feb 09:55:13 09:57:24 14° 292° (WNW) 09:59:34 145.822/145.860
SEEDS 06 Feb 10:00:40 10:02:46 14° 292° (WNW) 10:04:51 437.485
POLYITAN 1 06 Feb 10:03:02 10:05:49 17° 69° (ENE) 10:08:36 437.675
QB50P2 06 Feb 10:03:46 10:06:41 18° 69° (ENE) 10:09:35 145.880/145.840
ZACube-1 06 Feb 10:05:24 10:09:34 65° 283° (WNW) 10:13:47 437.345
O/OREOS (USA 219) 06 Feb 10:16:25 10:17:29 11° 302° (WNW) 10:18:33 437.305
FUNcube-1 06 Feb 10:16:47 10:20:49 49° 285° (WNW) 10:24:56 145.935
AAUSAT CUBESAT 2 06 Feb 10:27:41 10:28:47 11° 293° (WNW) 10:29:54 437.432
ESTCUBE 1 06 Feb 10:28:31 10:29:21 10° 92° (E) 10:30:10 437.505/2401.250
BUGSAT 1 06 Feb 10:29:32 10:32:10 16° 69° (ENE) 10:34:48 437.445
CUBEBUG 2 06 Feb 10:29:47 10:32:25 16° 291° (WNW) 10:35:04 437.445
POPSAT HIP 1 06 Feb 10:33:26 10:37:23 38° 73° (ENE) 10:41:20 437.405
UNISAT 6 06 Feb 10:35:43 10:39:49 38° 261° (W) 10:43:52 437.425
DELFI C3 06 Feb 10:36:45 10:40:28 36° 286° (WNW) 10:44:10 145.870
AO-85 06 Feb 10:37:44 10:42:28 36° 111° (ESE) 10:47:27 145.980
UWE-3 06 Feb 10:39:11 10:42:01 18° 290° (WNW) 10:44:54 435.000/436.395/437.385
NANOSAT C BR1 06 Feb 10:40:39 10:44:42 46° 74° (ENE) 10:48:45 145.865
DUCHIFAT 1 06 Feb 10:43:55 10:48:00 48° 75° (ENE) 10:52:04 145.980
QB50P1 06 Feb 10:46:14 10:50:24 57° 75° (ENE) 10:54:34 145.935-145.965
CUBEBUG 1 06 Feb 10:53:27 10:55:58 15° 94° (E) 10:58:29 437.445
UKube-1 06 Feb 10:57:02 11:00:03 18° 95° (E) 11:03:04 .
Oscar 11 06 Feb 10:57:59 11:00:01 13° 293° (WNW) 11:02:02 145.826/435.025
HUMSAT D 06 Feb 10:59:55 11:03:58 52° 284° (WNW) 11:08:02 437.325/437.525
DX 1 06 Feb 11:01:11 11:04:47 25° 97° (E) 11:08:21 434.975-435.025
AIST 1 06 Feb 11:05:08 11:09:27 64° 94° (E) 11:13:50
SRMSAT 06 Feb 11:05:18 11:07:45 13° 165° (SSE) 11:10:13 437.500
GONETS M04 06 Feb 11:16:18 11:22:43 23° 289° (WNW) 11:29:11
PCSat 06 Feb 11:17:23 11:22:37 54° 111° (ESE) 11:27:53 145.827
JUGNU 06 Feb 11:23:44 11:28:03 21° 177° (S) 11:32:22 437.505
ANTELSAT 06 Feb 11:23:55 11:25:14 11° 267° (W) 11:26:33 437.575/2403.000
RS-15 06 Feb 11:25:22 11:35:41 49° 108° (ESE) 11:46:28 29.354- 29.394
Cosmos 2499 06 Feb 11:30:37 11:38:31 41° 283° (WNW) 11:46:48 435.465 / 435.565
POLYITAN 1 06 Feb 11:37:35 11:41:22 31° 262° (W) 11:45:09 437.675
50 SAT 06 Feb 11:37:43 11:41:31 87° 282° (WNW) 11:45:19 437.505
QB50P2 06 Feb 11:38:31 11:42:15 29° 262° (W) 11:45:59 145.880/145.840
VELOX 1 06 Feb 11:40:28 11:44:53 71° 102° (ESE) 11:49:15 145.980
JAS-2 06 Feb 11:49:35 11:54:21 18° 63° (ENE) 11:58:56 435.910
AISAT 06 Feb 11:56:24 12:00:48 70° 284° (WNW) 12:05:09 437.250
ESTCUBE 1 06 Feb 12:01:59 12:06:26 56° 285° (WNW) 12:10:52 437.505/2401.250
BUGSAT 1 06 Feb 12:03:26 12:07:16 33° 262° (W) 12:11:05 437.445
Oscar 19 06 Feb 12:08:12 12:12:17 24° 68° (ENE) 12:16:22 437.125/150
POPSAT HIP 1 06 Feb 12:11:10 12:13:17 13° 266° (W) 12:15:24 437.405
CUSAT 1 06 Feb 12:13:40 12:15:54 12° 62° (ENE) 12:17:56 437.405
AO-85 06 Feb 12:18:32 12:23:03 28° 307° (NW) 12:27:44 145.980
NANOSAT C BR1 06 Feb 12:19:26 12:20:38 11° 267° (W) 12:21:50 145.865
DUCHIFAT 1 06 Feb 12:23:07 12:23:55 10° 267° (W) 12:24:44 145.980
CUBEBUG 1 06 Feb 12:28:20 12:32:21 36° 287° (WNW) 12:36:19 437.445
UKube-1 06 Feb 12:32:21 12:36:06 29° 289° (WNW) 12:39:50 .
DX 1 06 Feb 12:37:27 12:40:49 22° 290° (WNW) 12:44:11 434.975-435.025
SPROUT 06 Feb 12:48:09 12:52:23 64° 284° (WNW) 12:56:34 437.525
SRMSAT 06 Feb 12:52:00 12:56:15 20° 174° (S) 13:00:31 437.500
PCSat 06 Feb 13:02:35 13:06:19 19° 307° (NW) 13:10:03 145.827
ITAMSAT 1 06 Feb 13:09:02 13:12:19 17° 66° (ENE) 13:15:37 435.822/435.867
JUGNU 06 Feb 13:12:23 13:16:26 19° 187° (S) 13:20:28 437.505
TISAT 1 06 Feb 13:12:38 13:16:50 84° 103° (ESE) 13:20:59 437.305
ITUPSAT 1 06 Feb 13:29:26 13:32:49 19° 95° (E) 13:36:10 437.325
JAS-2 06 Feb 13:30:42 13:38:35 82° 257° (WSW) 13:46:00 435.910
AO-7 06 Feb 13:35:24 13:40:31 18° 56° (NE) 13:45:37 29.400- 29.500
RS-15 06 Feb 13:37:39 13:48:04 44° 309° (NW) 13:59:05 29.354- 29.394
BEESAT 06 Feb 13:40:07 13:44:03 25° 97° (E) 13:47:59 436.000
Gurwin Techsat 1B 06 Feb 13:44:54 13:50:11 79° 75° (ENE) 13:55:31 435.225
Oscar 19 06 Feb 13:46:43 13:51:22 33° 262° (W) 13:56:03 437.125/150
DANDE 06 Feb 13:52:28 13:59:40 66° 79° (E) 14:05:05 436.750
CUSAT 1 06 Feb 13:53:17 13:59:14 65° 267° (W) 14:03:40 437.405
YUBILEINY 06 Feb 14:08:32 14:16:16 33° 75° (ENE) 14:23:53 435.215
Cosmos 2491 06 Feb 14:10:06 14:15:12 17° 80° (E) 14:20:17 435.465 / 435.565
SO-50 06 Feb 14:14:59 14:18:22 19° 50° (NE) 14:21:41 436.795
SWISSCUBE 06 Feb 14:31:15 14:36:04 77° 283° (WNW) 14:40:50 437.505
SRMSAT 06 Feb 14:40:25 14:44:48 21° 184° (S) 14:49:11 437.500
ITAMSAT 1 06 Feb 14:46:23 14:51:21 48° 260° (W) 14:56:22 435.822/435.867
KKS-1 06 Feb 14:47:48 14:50:33 16° 95° (E) 14:53:16 437.445
JUGNU 06 Feb 15:03:08 15:04:44 11° 197° (SSW) 15:06:21 437.505
ITUPSAT 1 06 Feb 15:06:18 15:10:42 36° 288° (WNW) 15:15:05 437.325
HORYU 2 06 Feb 15:08:36 15:11:45 20° 69° (ENE) 15:14:55 437.375
M-CUBED/EXP-1 PRIME 06 Feb 15:11:05 15:14:51 50° 71° (ENE) 15:18:21 437.505
BEESAT 06 Feb 15:17:44 15:21:44 27° 290° (WNW) 15:25:44 436.000
JAS-2 06 Feb 15:21:19 15:24:09 12° 270° (W) 15:26:57 435.910
AO-7 06 Feb 15:23:47 15:32:10 88° 256° (WSW) 15:40:36 29.400- 29.500
AUBIESAT-1 06 Feb 15:24:23 15:28:12 62° 71° (ENE) 15:31:44 437.475
DANDE 06 Feb 15:37:44 15:41:21 15° 281° (W) 15:44:34 436.750
ISS 06 Feb 15:43:45 15:45:44 15° 127° (SE) 15:47:42 145.825
MOZHAYETS 4 06 Feb 15:48:18 15:52:23 30° 97° (E) 15:56:28
SO-50 06 Feb 15:54:34 15:59:04 43° 247° (WSW) 16:03:24 436.795
RS-15 06 Feb 15:59:35 16:04:54 14° 340° (NNW) 16:10:22 29.354- 29.394
Cosmos 2491 06 Feb 16:02:12 16:10:56 78° 277° (W) 16:19:41 435.465 / 435.565
YUBILEINY 06 Feb 16:04:52 16:13:08 47° 271° (W) 16:21:22 435.215
Cosmos 2504 06 Feb 16:15:14 16:23:25 45° 77° (ENE) 16:31:02 435.465 / 435.565
STARS 06 Feb 16:16:08 16:20:31 84° 286° (WNW) 16:24:52 437.465
KKS-1 06 Feb 16:23:09 16:27:11 35° 288° (WNW) 16:31:12 437.445
SRMSAT 06 Feb 16:30:11 16:33:18 15° 194° (SSW) 16:36:27 437.500
HORYU 2 06 Feb 16:44:13 16:48:06 30° 262° (W) 16:51:58 437.375
LilacSat-2 06 Feb 17:06:17 17:08:40 16° 70° (ENE) 17:11:03 437.200
ISS 06 Feb 17:18:55 17:21:56 35° 321° (NW) 17:24:57 145.825
AO-7 06 Feb 17:21:52 17:25:46 14° 268° (W) 17:29:41 29.400- 29.500
BEESAT 3 06 Feb 17:21:58 17:25:25 29° 112° (ESE) 17:28:53 437.485
MOZHAYETS 4 06 Feb 17:25:52 17:29:20 21° 291° (WNW) 17:32:47
CUTE-I 06 Feb 17:35:18 17:40:28 54° 73° (ENE) 17:45:39 437.470
BEESAT 2 06 Feb 17:39:17 17:42:45 29° 112° (ESE) 17:46:15 435.950
Cubesat XI-IV 06 Feb 17:47:40 17:52:57 73° 75° (ENE) 17:58:16 437.490
GOMX 1 06 Feb 17:51:54 17:55:54 21° 69° (ENE) 17:59:49 467.674
CUBESAT XI-V 06 Feb 17:55:02 17:59:45 73° 101° (E) 18:04:25 437.345
DOVE 4 06 Feb 17:55:57 17:56:24 10° 65° (ENE) 17:56:53 437.250
HO-68 06 Feb 17:58:53 17:59:56 10° 55° (NE) 18:01:00 435.675
BRITE-PL 06 Feb 18:02:49 18:08:19 53° 74° (ENE) 18:13:49 437.365/2234.400
Cosmos 2491 06 Feb 18:06:12 18:09:08 12° 295° (WNW) 18:12:05 435.465 / 435.565
Cosmos 2504 06 Feb 18:09:07 18:16:24 32° 275° (W) 18:23:19 435.465 / 435.565
RS-15 06 Feb 18:20:01 18:25:22 14° 19° (NNE) 18:30:46 29.354- 29.394
LilacSat-2 06 Feb 18:39:29 18:42:46 26° 263° (W) 18:46:02 437.200
STRAND 1 06 Feb 18:42:09 18:46:24 26° 96° (E) 18:50:39 437.568
O/OREOS (USA 219) 06 Feb 18:47:22 18:51:53 57° 69° (ENE) 18:56:24 437.305
CUTE 1.7 + AOD 2 06 Feb 18:59:20 19:01:55 16° 69° (ENE) 19:04:32 437.475
BEESAT 3 06 Feb 19:00:18 19:03:11 19° 307° (NW) 19:06:04 437.485
AIST 2 06 Feb 19:05:18 19:08:42 25° 111° (ESE) 19:12:07 435.215
SEEDS 06 Feb 19:12:14 19:14:55 17° 69° (ENE) 19:17:36 437.485
CINEMA 3 06 Feb 19:14:26 19:18:08 23° 71° (ENE) 19:21:43 145.822/145.860
AO-85 06 Feb 19:15:46 19:17:54 12° 44° (NE) 19:19:58 145.980
BEESAT 2 06 Feb 19:17:42 19:20:40 19° 307° (NW) 19:23:37 435.950
CUTE-I 06 Feb 19:17:53 19:20:46 15° 267° (W) 19:23:40 437.470
DOVE 4 06 Feb 19:28:13 19:33:28 80° 258° (WSW) 19:38:31 437.250
GOMX 1 06 Feb 19:28:27 19:33:38 43° 262° (W) 19:38:43 467.674
Cubesat XI-IV 06 Feb 19:32:30 19:33:27 10° 268° (W) 19:34:24 437.490
GONETS M04 06 Feb 19:33:12 19:40:12 26° 72° (ENE) 19:47:09
PRISM 06 Feb 19:33:48 19:37:15 24° 97° (E) 19:40:38 437.425
AAUSAT CUBESAT 2 06 Feb 19:36:48 19:39:44 19° 70° (ENE) 19:42:42 437.432
HO-68 06 Feb 19:39:15 19:46:21 70° 72° (ENE) 19:53:29 435.675
CANX-2 06 Feb 19:41:58 19:46:06 63° 76° (ENE) 19:50:16 2200.000
BRITE-PL 06 Feb 19:43:16 19:46:58 18° 267° (W) 19:50:41 437.365/2234.400
CUBEBUG 2 06 Feb 19:47:20 19:50:11 17° 70° (ENE) 19:52:58 437.445
UWE-3 06 Feb 19:56:23 19:58:50 15° 69° (ENE) 20:01:15 435.000/436.395/437.385
PCSat 06 Feb 20:10:24 20:14:13 19° 53° (NE) 20:17:59 145.827
Oscar 11 06 Feb 20:11:31 20:14:41 20° 70° (ENE) 20:17:52 145.826/435.025
STRAND 1 06 Feb 20:21:02 20:25:30 30° 290° (WNW) 20:29:57 437.568
O/OREOS (USA 219) 06 Feb 20:30:24 20:30:42 10° 263° (W) 20:31:00 437.305
RS-15 06 Feb 20:31:13 20:42:34 42° 50° (NE) 20:53:58 29.354- 29.394
CUTE 1.7 + AOD 2 06 Feb 20:33:43 20:37:29 32° 263° (W) 20:41:17 437.475
COMPASS 1 06 Feb 20:38:42 20:42:44 53° 260° (W) 20:46:47 437.405
AIST 2 06 Feb 20:43:42 20:47:06 24° 306° (NW) 20:50:30 435.215
SEEDS 06 Feb 20:46:41 20:50:21 30° 263° (W) 20:54:04 437.485
CINEMA 3 06 Feb 20:51:00 20:55:06 28° 263° (W) 20:59:04 145.822/145.860
AO-85 06 Feb 20:54:06 20:59:10 81° 243° (WSW) 21:03:43 145.980
ZACube-1 06 Feb 20:56:54 21:01:05 54° 75° (ENE) 21:05:11 437.345
FUNcube-1 06 Feb 21:07:49 21:12:04 72° 76° (ENE) 21:16:15 145.935
PRISM 06 Feb 21:09:15 21:12:25 21° 290° (WNW) 21:15:33 437.425
AAUSAT CUBESAT 2 06 Feb 21:11:36 21:15:03 26° 263° (W) 21:18:32 437.432
DELFI C3 06 Feb 21:18:22 21:22:17 69° 77° (ENE) 21:26:14 145.870
AIST 1 06 Feb 21:19:32 21:20:24 10° 72° (ENE) 21:21:15
CUBEBUG 2 06 Feb 21:22:33 21:26:33 33° 262° (W) 21:30:27 437.445
Cosmos 2499 06 Feb 21:27:06 21:35:26 61° 80° (E) 21:43:05 435.465 / 435.565
GONETS M04 06 Feb 21:28:51 21:37:25 59° 269° (W) 21:46:00
HO-68 06 Feb 21:30:03 21:34:31 17° 267° (W) 21:39:01 435.675
UWE-3 06 Feb 21:30:57 21:34:59 36° 261° (W) 21:38:56 435.000/436.395/437.385
ANTELSAT 06 Feb 21:41:26 21:43:38 14° 94° (E) 21:45:50 437.575/2403.000
HUMSAT D 06 Feb 21:46:53 21:50:54 58° 76° (ENE) 21:54:55 437.325/437.525
Oscar 11 06 Feb 21:47:00 21:50:37 26° 263° (W) 21:54:16 145.826/435.025
TIGRISAT 06 Feb 21:49:09 21:51:49 16° 95° (E) 21:54:33 435.000
PCSat 06 Feb 21:52:37 21:57:53 52° 249° (WSW) 22:03:07 145.827
DX 1 06 Feb 21:54:00 21:56:14 14° 67° (ENE) 21:58:26 434.975-435.025
50 SAT 06 Feb 22:14:35 22:17:31 22° 72° (ENE) 22:20:27 437.505
UNISAT 6 06 Feb 22:31:06 22:35:22 56° 101° (E) 22:39:41 437.425
VELOX 1 06 Feb 22:33:40 22:37:45 36° 73° (ENE) 22:41:51 145.980
DUCHIFAT 1 06 Feb 22:35:22 22:35:59 10° 92° (E) 22:36:38 145.980
QB50P1 06 Feb 22:37:11 22:39:01 13° 93° (E) 22:40:52 145.935-145.965
RS-15 06 Feb 22:43:35 22:55:22 57° 250° (WSW) 23:07:12 29.354- 29.394
AISAT 06 Feb 22:49:19 22:53:43 59° 75° (ENE) 22:58:08 437.250
AIST 1 06 Feb 22:54:05 22:58:17 48° 267° (W) 23:02:25
ESTCUBE 1 06 Feb 22:56:54 23:01:24 78° 77° (ENE) 23:05:56 437.505/2401.250
ANTELSAT 06 Feb 23:16:24 23:20:27 40° 287° (WNW) 23:24:34 437.575/2403.000
CUBEBUG 1 06 Feb 23:19:21 23:23:47 78° 258° (WSW) 23:28:14 437.445
Cosmos 2499 06 Feb 23:21:47 23:27:41 22° 278° (W) 23:33:18 435.465 / 435.565
UKube-1 06 Feb 23:21:59 23:26:16 61° 259° (WSW) 23:30:34 .
TIGRISAT 06 Feb 23:24:40 23:28:34 34° 287° (WNW) 23:32:31 435.000
POLYITAN 1 06 Feb 23:26:18 23:30:26 55° 100° (E) 23:34:32 437.675
QB50P2 06 Feb 23:27:08 23:31:17 58° 101° (E) 23:35:25 145.880/145.840
DX 1 06 Feb 23:27:50 23:32:00 43° 260° (W) 23:36:12 434.975-435.025
SPROUT 06 Feb 23:37:24 23:41:36 54° 75° (ENE) 23:45:48 437.525
50 SAT 06 Feb 23:49:02 23:51:29 17° 265° (W) 23:53:57 437.505
BUGSAT 1 06 Feb 23:49:17 23:53:10 45° 100° (E) 23:57:00 437.445
ISS 06 Feb 23:49:51 23:52:47 31° 38° (NE) 23:55:42 145.825
POPSAT HIP 1 06 Feb 23:57:51 00:01:58 59° 286° (WNW) 00:06:06 437.405
TISAT 1 07 Feb 00:00:18 00:04:08 34° 73° (ENE) 00:07:58 437.305
NANOSAT C BR1 07 Feb 00:04:52 00:08:54 49° 286° (WNW) 00:12:56 145.865
DUCHIFAT 1 07 Feb 00:07:54 00:11:55 47° 286° (WNW) 00:15:55 145.980
UNISAT 6 07 Feb 00:10:50 00:11:35 10° 294° (WNW) 00:12:21 437.425
QB50P1 07 Feb 00:11:01 00:14:57 40° 286° (WNW) 00:18:51 145.935-145.965
VELOX 1 07 Feb 00:11:32 00:14:18 16° 266° (W) 00:17:04 145.980
Oscar 19 07 Feb 00:26:16 00:27:23 11° 92° (E) 00:28:29 437.125/150
ITUPSAT 1 07 Feb 00:33:16 00:35:43 14° 66° (ENE) 00:38:12 437.325
BEESAT 07 Feb 00:43:09 00:46:25 19° 68° (ENE) 00:49:42 436.000
PHONESAT 2.4 07 Feb 00:44:42 00:46:41 15° 142° (SE) 00:48:39 2401.200-2431.200
JAS-2 07 Feb 00:49:10 00:51:31 13° 90° (E) 00:53:48 435.910
CUSAT 1 07 Feb 01:07:45 01:13:42 26° 85° (E) 01:20:01 437.405
DANDE 07 Feb 01:14:37 01:18:27 15° 79° (E) 01:22:32 436.750
ISS 07 Feb 01:26:47 01:29:03 18° 232° (SW) 01:31:19 145.825
BUGSAT 1 07 Feb 01:27:02 01:28:06 11° 293° (WNW) 01:29:09 437.445
SWISSCUBE 07 Feb 01:33:19 01:38:03 75° 76° (ENE) 01:42:49 437.505
TISAT 1 07 Feb 01:37:22 01:39:51 15° 266° (W) 01:42:22 437.305
Oscar 19 07 Feb 02:02:00 02:07:05 68° 285° (WNW) 02:12:09 437.125/150
Gurwin Techsat 1B 07 Feb 02:05:35 02:10:39 44° 99° (E) 02:15:42 435.225
ITUPSAT 1 07 Feb 02:08:29 02:13:05 50° 260° (W) 02:17:44 437.325
Cosmos 2491 07 Feb 02:18:05 02:26:18 43° 78° (ENE) 02:34:31 435.465 / 435.565
BEESAT 07 Feb 02:19:31 02:23:53 37° 261° (W) 02:28:18 436.000
PHONESAT 2.4 07 Feb 02:20:23 02:23:40 79° 337° (NNW) 02:26:56 2401.200-2431.200
JAS-2 07 Feb 02:31:36 02:37:10 58° 287° (WNW) 02:42:18 435.910
MOZHAYETS 4 07 Feb 02:46:58 02:50:02 18° 68° (ENE) 02:53:07
CUSAT 1 07 Feb 02:47:56 02:55:21 60° 281° (WNW) 03:03:26 437.405
DANDE 07 Feb 02:52:56 02:59:59 89° 277° (W) 03:08:25 436.750
ITAMSAT 1 07 Feb 03:03:12 03:08:28 86° 103° (ESE) 03:13:42 435.822/435.867
YUBILEINY 07 Feb 03:03:46 03:11:50 43° 88° (E) 03:19:56 435.215
STARS 07 Feb 03:08:29 03:12:44 48° 74° (ENE) 03:16:59 437.465
KKS-1 07 Feb 03:16:21 03:20:48 68° 258° (WSW) 03:25:15 437.445
BEESAT 3 07 Feb 03:20:29 03:24:25 66° 60° (ENE) 03:28:19 437.485
AO-7 07 Feb 03:30:39 03:38:24 41° 100° (E) 03:46:03 29.400- 29.500
BEESAT 2 07 Feb 03:38:39 03:42:37 67° 61° (ENE) 03:46:32 435.950
Gurwin Techsat 1B 07 Feb 03:46:34 03:50:13 19° 294° (WNW) 03:53:53 435.225
PHONESAT 2.4 07 Feb 03:58:27 04:01:14 25° 351° (N) 04:04:01 2401.200-2431.200
Cosmos 2491 07 Feb 04:15:15 04:22:50 34° 274° (W) 04:30:26 435.465 / 435.565
MOZHAYETS 4 07 Feb 04:22:47 04:26:54 34° 262° (W) 04:31:05
SO-50 07 Feb 04:26:01 04:28:44 15° 107° (ESE) 04:31:29 436.795
M-CUBED/EXP-1 PRIME 07 Feb 04:28:44 04:32:07 80° 108° (ESE) 04:35:41 437.505
HORYU 2 07 Feb 04:38:39 04:43:05 69° 102° (ESE) 04:47:30 437.375
DANDE 07 Feb 04:39:48 04:44:12 16° 296° (WNW) 04:48:57 436.750
AUBIESAT-1 07 Feb 04:41:30 04:44:56 84° 288° (WNW) 04:48:34 437.475
Cosmos 2504 07 Feb 04:47:11 04:54:52 42° 87° (E) 05:02:56 435.465 / 435.565
STARS 07 Feb 04:47:48 04:49:18 12° 267° (W) 04:50:48 437.465
CUBESAT XI-V 07 Feb 04:54:02 04:58:26 43° 73° (ENE) 05:02:53 437.345
YUBILEINY 07 Feb 05:00:49 05:08:36 35° 285° (WNW) 05:16:29 435.215
AIST 2 07 Feb 05:08:07 05:12:12 60° 60° (ENE) 05:16:14 435.215
AO-7 07 Feb 05:23:31 05:31:00 39° 296° (WNW) 05:38:26 29.400- 29.500
PHONESAT 2.4 07 Feb 05:36:22 05:39:07 24° 8° (N) 05:41:51 2401.200-2431.200
STRAND 1 07 Feb 05:54:12 05:58:16 24° 68° (ENE) 06:02:20 437.568
CUTE-I 07 Feb 05:56:58 06:01:42 31° 97° (E) 06:06:24 437.470
SO-50 07 Feb 06:04:00 06:08:45 52° 302° (WNW) 06:13:35 436.795
Cubesat XI-IV 07 Feb 06:09:23 06:14:28 41° 99° (E) 06:19:31 437.490
BRITE-PL 07 Feb 06:13:52 06:17:22 21° 93° (E) 06:20:41 437.365/2234.400
LilacSat-2 07 Feb 06:16:38 06:20:12 40° 99° (E) 06:23:46 437.200
PRISM 07 Feb 06:21:50 06:22:46 11° 66° (ENE) 06:23:41 437.425
CUBESAT XI-V 07 Feb 06:33:21 06:35:58 15° 267° (W) 06:38:38 437.345
Cosmos 2504 07 Feb 06:40:37 06:48:12 37° 285° (WNW) 06:56:11 435.465 / 435.565
PHONESAT 2.4 07 Feb 07:13:28 07:16:44 68° 24° (NNE) 07:19:59 2401.200-2431.200
HO-68 07 Feb 07:14:00 07:17:59 15° 93° (E) 07:21:57 435.675
O/OREOS (USA 219) 07 Feb 07:20:00 07:20:53 11° 98° (E) 07:21:47 437.305
DOVE 4 07 Feb 07:32:23 07:36:15 34° 98° (E) 07:40:02 437.250
CANX-2 07 Feb 07:32:32 07:35:04 15° 94° (E) 07:37:35 2200.000
STRAND 1 07 Feb 07:32:43 07:37:14 32° 262° (W) 07:41:47 437.568
GOMX 1 07 Feb 07:35:10 07:39:38 86° 105° (ESE) 07:43:50 467.674
CUTE-I 07 Feb 07:37:07 07:41:35 27° 291° (WNW) 07:46:03 437.470
Cubesat XI-IV 07 Feb 07:50:16 07:54:12 21° 293° (WNW) 07:58:08 437.490
BRITE-PL 07 Feb 07:51:46 07:55:52 29° 290° (WNW) 07:59:42 437.365/2234.400
LilacSat-2 07 Feb 07:53:25 07:54:07 10° 292° (WNW) 07:54:50 437.200
